Flag for Germany Weather past 2 weeks in Moers, North Rhine-Westphalia, Germany

39 °F

Passing clouds.

Feels Like: 32 °F
Forecast: 41 / 46 °F
Wind: 13 mph from South

Location: Duesseldorf

Current Time: Nov 27, 2015 at 9:01:21 PM

Latest Report: Nov 27, 2015 at 8:20 PM

Visibility: N/A

Pressure: 29.89 "Hg

Humidity: 81%

Dew point: 34 °F

Location of MoersLocation

Historic Weather in Moers — Graph


Moers temperature yesterday

Maximum temperature yesterday: 48 °F (at 2:50 PM)
Minimum temperature yesterday: 34 °F (at 8:20 AM)
Average temperature yesterday: 39 °F

Past Weeks' High & Low Weather Summary

High61 °F (Nov 15, 11:50 AM)100% (Nov 14, 10:50 PM)30.30 "Hg (Nov 14, 10:50 PM)
Low32 °F (Nov 22, 7:20 AM)59% (Nov 18, 3:20 AM)29.39 "Hg (Nov 21, 7:20 AM)
Average47 °F83%29.91 "Hg
* Reported Nov 12 7:20 PM — Nov 27 7:50 PM, Moers, Weather by CustomWeather, © 2015

Note: Actual official high and low records may vary slightly from our data, if they occured in-between our weather recording intervals... More about our weather records


Moers weather history for previous 24 hours

Time TempWeatherWind HumidityBarometerVisibility
7:50 PM
Fri, Nov 27
39 °FOvercast.16 mph81%29.89 "HgN/A
7:20 PM41 °FOvercast.18 mph76%29.89 "HgN/A
6:20 PM41 °FPassing clouds.13 mph81%29.89 "HgN/A
5:50 PM41 °FPassing clouds.13 mph81%29.92 "HgN/A
5:20 PM43 °FPassing clouds.12 mph76%29.92 "HgN/A
4:50 PM43 °FPassing clouds.9 mph76%29.92 "HgN/A
4:20 PM41 °FScattered clouds.10 mph81%29.92 "HgN/A
3:50 PM43 °FPassing clouds.10 mph76%29.95 "HgN/A
3:20 PM45 °FSunny.13 mph71%29.95 "Hg10 mi
2:50 PM45 °FSunny.14 mph71%29.95 "Hg10 mi
2:20 PM45 °FSunny.15 mph71%29.98 "Hg10 mi
1:50 PM43 °FSunny.13 mph76%29.98 "Hg10 mi
1:20 PM43 °FSunny.12 mph76%30.01 "Hg10 mi
12:50 PM43 °FPassing clouds.10 mph76%30.01 "HgN/A
12:20 PM41 °FPassing clouds.13 mph81%30.04 "HgN/A
11:50 AM39 °FPassing clouds.12 mph87%30.07 "Hg6 mi
11:20 AM39 °FPassing clouds.10 mph87%30.07 "Hg5 mi
10:50 AM37 °FScattered clouds.10 mph93%30.07 "Hg4 mi
10:20 AM36 °FFog.12 mph100%30.07 "Hg2 mi
9:50 AM36 °FFog.12 mph93%30.09 "Hg2 mi
9:20 AM34 °FFog.10 mph100%30.09 "Hg1 mi
8:50 AM34 °FFog.9 mph100%30.09 "Hg1 mi
7:50 AM32 °FIce fog.12 mph100%30.09 "Hg1 mi
7:20 AM34 °FFog.13 mph100%30.09 "Hg1 mi
6:50 AM34 °FFog.10 mph100%30.09 "Hg1 mi
6:20 AM34 °FFog.9 mph100%30.09 "Hg1 mi
5:50 AM34 °FPassing clouds.14 mph100%30.12 "Hg4 mi
5:20 AM34 °FPassing clouds.13 mph100%30.12 "Hg4 mi
4:50 AM34 °FClear.14 mph100%30.12 "Hg5 mi
4:20 AM34 °FClear.12 mph100%30.12 "Hg5 mi
3:50 AM34 °FClear.9 mph100%30.15 "Hg5 mi
3:20 AM34 °FClear.6 mph100%30.15 "Hg6 mi
2:50 AM36 °FClear.9 mph93%30.15 "Hg6 mi
2:20 AM36 °FClear.12 mph93%30.15 "Hg6 mi
1:50 AM36 °FClear.12 mph93%30.15 "Hg6 mi
1:20 AM36 °FClear.10 mph93%30.15 "Hg6 mi
12:50 AM36 °FClear.8 mph93%30.18 "Hg10 mi
12:20 AM36 °FClear.9 mph93%30.15 "Hg10 mi
11:50 PM
Thu, Nov 26
34 °FClear.9 mph100%30.18 "Hg10 mi
11:20 PM36 °FClear.7 mph93%30.18 "Hg10 mi
10:50 PM36 °FClear.8 mph93%30.15 "Hg10 mi
10:20 PM34 °FClear.7 mph100%30.18 "Hg10 mi
9:50 PM36 °FClear.8 mph93%30.18 "Hg10 mi
9:20 PM36 °FPassing clouds.5 mph100%30.18 "HgN/A
Weather by CustomWeather, © 2015

See weather overviewHow to use our weather pages